[[{"header":{"parameterUnit":"m.s-1","parameterCategory":1,"la1":30.2991,"la2":30.254,"lo1":-89.0895,"lo2":-89.0444,"dy":0.0017,"dx":0.0017,"nx":28,"ny":28,"refTime":"2024-12-31T09:00:00:Z","depth":0,"parameterNumber":2,"parameterNumberName":"U-component_of_WINDS"},"data":[0,0,0,0,0,0,0,0,0,0,0,0,0,0,0,0,0,0,0,0,0,0,0,0,0,0,0,0,0,0,0,0,0,0,0,0,0,0,0,0,0,0,0,0,0,0,0,0,0,0,0,0,0,0,0,0,0,0,0.9172,0.9173,0,0.926,0.9261,0.9262,0.9258,0.9257,0.9256,0.9254,0.9347,0.9351,0.9354,0,0,0,0,0,0,0,0,0,0,0,0,0,0.9005,0.9008,0.9172,0.9173,0.9174,0.926,0.9261,0.9262,0.9258,0.9257,0.9255,0.9254,0.9346,0.935,0.9354,0,0,0,0,0,0,0,0,0,0,0,0,0,0.9083,0.9009,0.9172,0.9183,0.9184,0.9259,0.9261,0.9262,0.9259,0.9257,0.9255,0.9253,0.9344,0.935,0.9355,0.9426,0,0,0.9372,0.9374,0,0,0,0,0,0,0,0,0.9079,0.909,0.918,0.9182,0.9184,0.9246,0.9236,0.9317,0.9259,0.9231,0.9254,0.9252,0.9315,0.9323,0.9343,0.943,0.9434,0.9372,0.9375,0.9378,0.9379,0,0,0,0,0,0,0,0.9074,0.9086,0.9207,0.9181,0.9184,0.9184,0.9193,0.9251,0.9282,0.9233,0.9233,0.9243,0.9316,0.9338,0.9346,0.9436,0.9372,0.9377,0.938,0.9382,0.9586,0.9588,0,0,0,0,0,0,0.9065,0.9081,0.9204,0.921,0.9126,0.9189,0.9199,0.9228,0.9282,0.9288,0.9245,0.9243,0.933,0.9339,0.9349,0.9436,0.9378,0.9383,0.9386,0.9584,0.9587,0.9589,0,0,0,0,0,0,0.9062,0.9076,0.9201,0.9145,0.9161,0.9193,0.9226,0.9231,0.9253,0.929,0.9296,0.9261,0.9329,0.9341,0.9407,0.9439,0.9385,0.939,0.9581,0.9585,0.9588,0.9611,0,0,0,0,0,0,0.9057,0.9075,0.9102,0.9146,0.9164,0.9256,0.9228,0.9234,0.9262,0.926,0.9308,0.9314,0.9328,0.9399,0.9412,0.9446,0.9394,0.9579,0.9583,0.9587,0.9608,0.9615,0.9621,0,0,0,0,0,0.9051,0.9105,0.9103,0.9118,0.9198,0.9258,0.9269,0.9283,0.9265,0.9292,0.9316,0.9312,0.9433,0.9405,0.9421,0.9457,0.9577,0.9582,0.9586,0.9605,0.9613,0.9621,0,0,0,0,0,0,0.9065,0.9111,0.9109,0.9179,0.9215,0.9257,0.9293,0.9292,0.9334,0.9331,0.9348,0.9359,0.9425,0.9447,0.9415,0.9528,0.9503,0.9511,0.9512,0.952,0.9527,0.9521,0.9399,0,0,0,0,0,0.9076,0.912,0.9158,0.9216,0.9234,0.926,0.9287,0.9295,0.9333,0.9348,0.9377,0.9415,0.9461,0.9492,0.9537,0.961,0.9622,0.9643,0.9649,0.9655,0.9662,0.9704,0.9714,0.9605,0.9605,0.9605,0,0,0.9099,0.913,0.9157,0.922,0.9248,0.9295,0.9273,0.9323,0.9358,0.9356,0.942,0.9442,0.9486,0.9556,0.9588,0.9577,0.9694,0.9661,0.9665,0.9669,0.971,0.972,0.9729,0.9608,0.9608,0.9607,0,0,0.9166,0.9193,0.9245,0.9274,0.9317,0.9334,0.9346,0.9389,0.9404,0.9468,0.9468,0.951,0.9589,0.9621,0.9647,0.9725,0.9724,0.974,0.9775,0.9816,0.9824,0.9832,0.9861,0.9872,0.9746,0.9747,0.9747,0,0.919,0.9259,0.9272,0.9322,0.935,0.935,0.9403,0.9431,0.9487,0.9507,0.9492,0.9593,0.9622,0.97,0.9719,0.974,0.9756,0.9735,0.9822,0.983,0.9837,0.9865,0.9876,0.9748,0.9748,0.9748,0.9748,0,0.9287,0.9335,0.9372,0.9425,0.9457,0.9509,0.9531,0.9562,0.9567,0.9586,0.9652,0.9686,0.9739,0.9758,0.9763,0.9837,0.9829,0.9818,0.9793,0.9849,0.9876,0.9887,0.9751,0.975,0.975,0.9749,0,0,0.9366,0.9425,0.9439,0.9463,0.9511,0.9549,0.96,0.9651,0.9678,0.9716,0.9761,0.9829,0.9819,0.9849,0.9858,0.9894,0.9955,0.9879,0.988,0.9893,1.004,1.0049,1.0061,0.9954,0.9956,0.9958,1.0037,0,0.9439,0.953,0.9543,0.9624,0.9669,0.9669,0.9715,0.975,0.9769,0.981,0.9832,0.988,0.9863,0.9881,0.9916,0.994,0.9985,0.9935,0.9998,1.0,0.9988,1.0075,1.0085,1.0158,1.0048,1.0049,1.0051,0,0.9536,0.9576,0.9662,0.9704,0.9723,0.9764,0.9811,0.9851,0.989,0.9902,0.9935,0.994,0.9995,0.9966,1.0043,1.0009,1.0035,1.0051,1.0054,1.0062,1.003,1.0087,1.0182,1.0193,1.0067,1.0066,1.0065,0,0.9586,0.9662,0.9723,0.9744,0.9794,0.9823,0.9845,0.9883,0.9913,0.9954,0.9974,1.0022,1.0048,1.0086,1.0104,1.0081,1.0181,1.0153,1.0193,1.0193,1.0215,1.0214,1.0317,1.023,1.0229,1.0229,1.0229,0,0.9667,0.972,0.9747,0.9785,0.9844,0.9859,0.9917,0.9939,0.9973,1.0016,1.0018,1.0059,1.008,1.0124,1.0138,1.0201,1.0212,1.0224,1.0228,1.0225,1.0223,1.0243,1.0239,1.0232,1.0231,1.0231,1.023,0,0.9734,0.9754,0.9821,0.9863,0.9874,0.9916,0.9953,0.999,1.0008,1.0063,1.0076,1.0106,1.0158,1.0179,1.0243,1.0253,1.0325,1.0324,1.0311,1.0313,1.0352,1.0349,1.0473,1.0491,1.039,1.0391,1.0392,0,0.9785,0.9825,0.9871,0.99,0.9923,0.9969,0.9999,1.0015,1.0046,1.0095,1.0127,1.0178,1.022,1.0303,1.0331,1.038,1.0382,1.0422,1.0389,1.0385,1.0384,1.0382,1.0387,1.0428,1.0429,1.043,1.0431,0,0.9873,0.9881,0.9924,0.9971,1.0006,1.0044,1.0081,1.0104,1.0127,1.0162,1.0215,1.0247,1.0312,1.0364,1.0415,1.0439,1.0439,1.044,1.0453,1.0451,1.0443,1.0449,1.0329,1.0438,1.0437,1.0437,1.0436,1.0436,0.9935,0.9971,1.0009,1.0057,1.0086,1.0121,1.0158,1.0181,1.0225,1.0279,1.0285,1.0342,1.0382,1.045,1.0476,1.0521,1.0511,1.0528,1.0533,1.0537,1.0541,1.0434,1.053,1.053,1.053,1.053,1.053,0,1.0025,1.0049,1.0093,1.0144,1.0182,1.0178,1.0218,1.0251,1.03,1.0337,1.0378,1.0439,1.0489,1.0521,1.0572,1.0602,1.0604,1.0615,1.0614,1.062,1.0546,1.0531,1.0613,1.0613,1.0613,1.0613,1.0613,1.0613,1.0076,1.0137,1.015,1.0227,1.0251,1.0306,1.033,1.0362,1.0391,1.0459,1.05,1.052,1.0555,1.0609,1.0655,1.0663,1.0683,1.0695,1.0703,1.0633,1.0625,1.0617,1.0603,1.0699,1.0699,1.0773,1.0773,1.0774]},{"header":{"parameterUnit":"m.s-1","parameterCategory":1,"la1":30.2991,"la2":30.254,"lo1":-89.0895,"lo2":-89.0444,"dy":0.0017,"dx":0.0017,"nx":28,"ny":28,"refTime":"2024-12-31T09:00:00:Z","depth":0,"parameterNumber":3,"parameterNumberName":"V-component_of_WINDS"},"data":[0,0,0,0,0,0,0,0,0,0,0,0,0,0,0,0,0,0,0,0,0,0,0,0,0,0,0,0,0,0,0,0,0,0,0,0,0,0,0,0,0,0,0,0,0,0,0,0,0,0,0,0,0,0,0,0,0,0,2.273,2.2731,0,2.2864,2.2866,2.2867,2.2898,2.2897,2.2897,2.2896,2.3037,2.3042,2.3046,0,0,0,0,0,0,0,0,0,0,0,0,0,2.2503,2.2507,2.273,2.2731,2.2733,2.2864,2.2866,2.2867,2.2899,2.2897,2.2896,2.2895,2.3036,2.3041,2.3047,0,0,0,0,0,0,0,0,0,0,0,0,0,2.2616,2.2508,2.2729,2.2764,2.2769,2.2863,2.2866,2.2868,2.2899,2.2897,2.2896,2.2895,2.3034,2.304,2.3047,2.3118,0,0,2.3069,2.3072,0,0,0,0,0,0,0,0,2.2609,2.2624,2.2757,2.2762,2.2767,2.2863,2.2837,2.2952,2.2899,2.285,2.2896,2.2894,2.2981,2.2992,2.302,2.3125,2.3131,2.3069,2.3073,2.3076,2.3078,0,0,0,0,0,0,0,2.2601,2.2618,2.2783,2.2759,2.2765,2.2774,2.2788,2.2859,2.2921,2.2854,2.2856,2.2872,2.2983,2.3013,2.3024,2.3133,2.3069,2.3075,2.3079,2.3082,2.3302,2.3304,0,0,0,0,0,0,2.2587,2.2612,2.2779,2.2787,2.2683,2.2779,2.2795,2.2834,2.2921,2.2932,2.2873,2.2873,2.3002,2.3016,2.3029,2.3118,2.3076,2.3083,2.3087,2.3301,2.3303,2.3304,0,0,0,0,0,0,2.2582,2.2602,2.2773,2.27,2.2723,2.2784,2.2827,2.2837,2.2868,2.2935,2.2946,2.2892,2.3002,2.3019,2.3095,2.3123,2.3086,2.3092,2.3299,2.3301,2.3303,2.3296,0,0,0,0,0,0,2.2575,2.26,2.2627,2.27,2.2726,2.2837,2.2829,2.2841,2.2879,2.288,2.2956,2.2968,2.3002,2.3085,2.3102,2.3132,2.3098,2.3296,2.33,2.3303,2.3294,2.3298,2.3302,0,0,0,0,0,2.2567,2.262,2.2628,2.2648,2.2761,2.2838,2.2853,2.2891,2.2881,2.2909,2.2952,2.2965,2.3117,2.3092,2.3112,2.3145,2.3295,2.3299,2.3302,2.3293,2.3298,2.3301,0,0,0,0,0,0,2.255,2.2631,2.264,2.2718,2.2771,2.2844,2.2881,2.2894,2.2952,2.2951,2.2996,2.3013,2.3086,2.3123,2.3094,2.3218,2.3206,2.3214,2.3191,2.3197,2.32,2.3191,2.3103,0,0,0,0,0,2.2555,2.261,2.2678,2.274,2.2766,2.2818,2.2853,2.2877,2.2934,2.2957,2.3006,2.3062,2.3122,2.3161,2.322,2.3299,2.3317,2.3331,2.3334,2.3337,2.3344,2.3389,2.3397,2.3317,2.3317,2.3317,0,0,2.2567,2.2618,2.265,2.2738,2.2782,2.2839,2.2837,2.2898,2.294,2.2967,2.3042,2.3079,2.3144,2.3222,2.3259,2.3255,2.337,2.3342,2.3343,2.3349,2.3394,2.3401,2.3408,2.3319,2.3319,2.3319,0,0,2.2618,2.2661,2.2718,2.2761,2.2827,2.2861,2.2874,2.2944,2.2969,2.3045,2.3066,2.3117,2.322,2.3266,2.3302,2.3368,2.3382,2.3386,2.3406,2.3449,2.3455,2.3461,2.3486,2.3494,2.3392,2.3392,2.3392,0,2.2625,2.271,2.2746,2.2805,2.2844,2.2867,2.2926,2.2966,2.3048,2.3075,2.3068,2.3197,2.3242,2.3332,2.3347,2.3376,2.3393,2.3379,2.3451,2.3457,2.3463,2.3487,2.3496,2.3392,2.3392,2.3392,2.3392,0,2.2716,2.2775,2.2813,2.289,2.2932,2.2991,2.3036,2.3075,2.3094,2.3129,2.3205,2.326,2.3331,2.3353,2.3373,2.3445,2.3441,2.3442,2.3431,2.347,2.3494,2.3503,2.3392,2.3392,2.3392,2.3392,0,0,2.2764,2.2857,2.2871,2.2906,2.2978,2.3025,2.3084,2.3151,2.3184,2.3239,2.3291,2.3376,2.3377,2.3418,2.3444,2.3481,2.3531,2.3478,2.348,2.3488,2.3615,2.3615,2.3625,2.3539,2.3541,2.3543,2.361,0,2.2825,2.2931,2.2963,2.3052,2.3107,2.3129,2.3181,2.3232,2.3265,2.3317,2.3355,2.3415,2.3411,2.3436,2.3474,2.3517,2.3557,2.3512,2.359,2.3592,2.3575,2.3637,2.3638,2.3698,2.3619,2.3621,2.3622,0,2.2911,2.2966,2.306,2.3124,2.3149,2.3194,2.3259,2.3307,2.3365,2.3387,2.3432,2.3453,2.3517,2.35,2.3589,2.3557,2.3591,2.3616,2.3619,2.363,2.3611,2.3651,2.3718,2.3728,2.3636,2.3635,2.3634,0,2.2938,2.3035,2.3104,2.3132,2.3209,2.3241,2.3275,2.3331,2.3369,2.3425,2.345,2.3513,2.3548,2.3597,2.3635,2.3619,2.3721,2.3707,2.3742,2.3742,2.3765,2.3764,2.3841,2.3783,2.3783,2.3782,2.3782,0,2.3005,2.3062,2.3117,2.3159,2.3224,2.326,2.3323,2.3358,2.3407,2.3458,2.348,2.3528,2.3574,2.3628,2.3658,2.3727,2.3743,2.3763,2.3771,2.3763,2.376,2.3787,2.3785,2.3785,2.3784,2.3784,2.3783,0,2.3047,2.3086,2.3163,2.3228,2.3245,2.329,2.3347,2.3389,2.3422,2.3486,2.3503,2.3555,2.3619,2.3661,2.3743,2.3763,2.384,2.3846,2.382,2.3825,2.3858,2.3855,2.3957,2.3973,2.3902,2.3902,2.3903,0,2.3088,2.3132,2.3202,2.3236,2.3269,2.3325,2.3363,2.34,2.3439,2.3507,2.3542,2.3606,2.3661,2.3762,2.3808,2.3871,2.388,2.3911,2.389,2.388,2.3883,2.3881,2.3886,2.3916,2.3916,2.3917,2.3917,0,2.3158,2.3174,2.3228,2.3288,2.3332,2.3382,2.3432,2.3459,2.3504,2.3547,2.3612,2.3654,2.3736,2.3801,2.3867,2.3903,2.3919,2.3923,2.3935,2.3928,2.3912,2.3923,2.3832,2.3921,2.3921,2.392,2.392,2.392,2.3203,2.3243,2.3297,2.3356,2.3397,2.3442,2.3485,2.3522,2.3576,2.3645,2.3663,2.3731,2.3787,2.3878,2.3914,2.3969,2.3966,2.3982,2.3987,2.3991,2.3992,2.3901,2.3981,2.3981,2.3981,2.3981,2.3981,0,2.3275,2.331,2.3364,2.3431,2.3478,2.3484,2.3539,2.3578,2.3637,2.3686,2.3738,2.3812,2.3875,2.3925,2.3989,2.4023,2.4032,2.4039,2.4038,2.4047,2.3991,2.3975,2.4031,2.4031,2.4031,2.4031,2.4031,2.4031,2.3318,2.3387,2.3409,2.3498,2.3533,2.3598,2.3629,2.3671,2.3711,2.3792,2.3843,2.3874,2.3925,2.3992,2.405,2.4063,2.4087,2.4093,2.4108,2.4056,2.405,2.4045,2.4031,2.4098,2.4098,2.416,2.4161,2.4161]}]]